Terminal Aerodrome Forecast
Issued by NWS Kansas City/Pleasant Hill, MO

Home | Current Version | Previous Version | Text Only | Print | Product List | Glossary On
Versions: 1 2 3 4 5 6 7 8 9 10 11 12 13 14 15 16 17 18 19 20 21 22 23 24 25 26 27 28 29
000
FTUS43 KEAX 260520
TAFMCI
TAF
KMCI 260520Z 2606/2706 02008KT P6SM SCT030 BKN050
     FM260800 06005KT P6SM VCTS BKN030CB
     FM261600 13008KT P6SM SCT030 BKN120
     FM262100 10007KT P6SM VCTS SCT035 BKN060CB=

USA.gov is the U.S. government's official web portal to all federal, state and local government web resources and services.